• In Deutschland
  • Länderverzeichnis
  • Für 7 Tage
  • Wassertemperatur
  • Satellitenkarten
  • Wetterkarte
  • Widgets
  • user-avatar
    Anmelden

    Stündliche Wetter Baku

    Heute, 26 Juni, Montag

    Zeit Temperatur Niederschläge Wind Luftdruck Luftfeuchtigkeit
    00:00 +26°C° 0 mm 9 m/S 760 mmHg 64%
    01:00 +26°C° 0 mm 8 m/S 760 mmHg 65%
    02:00 +26°C° 0 mm 8 m/S 760 mmHg 65%
    03:00 +26°C° 0 mm 8 m/S 760 mmHg 66%
    04:00 +26°C° 0 mm 8 m/S 761 mmHg 65%
    05:00 +26°C° 0 mm 8 m/S 761 mmHg 65%
    06:00 +26°C° 0 mm 8 m/S 762 mmHg 65%
    07:00 +27°C° 0 mm 7 m/S 762 mmHg 63%
    08:00 +28°C° 0 mm 7 m/S 762 mmHg 61%
    09:00 +28°C° 0 mm 7 m/S 762 mmHg 60%
    10:00 +28°C° 0 mm 6 m/S 762 mmHg 58%
    11:00 +29°C° 0 mm 6 m/S 762 mmHg 57%
    12:00 +29°C° 0 mm 5 m/S 762 mmHg 56%
    13:00 +29°C° 0 mm 5 m/S 762 mmHg 56%
    14:00 +29°C° 0 mm 5 m/S 762 mmHg 56%
    15:00 +29°C° 0 mm 5 m/S 762 mmHg 56%
    16:00 +28°C° 0 mm 4 m/S 762 mmHg 58%
    17:00 +28°C° 0 mm 4 m/S 762 mmHg 60%
    18:00 +27°C° 0 mm 4 m/S 762 mmHg 63%
    19:00 +27°C° 0 mm 3 m/S 762 mmHg 65%
    20:00 +26°C° 0 mm 2 m/S 762 mmHg 67%
    21:00 +26°C° 0 mm 2 m/S 762 mmHg 69%
    22:00 +25°C° 0 mm 2 m/S 762 mmHg 69%
    23:00 +25°C° 0 mm 1 m/S 761 mmHg 69%

    Morgen, 27 Juni, Dienstag

    Zeit Temperatur Niederschläge Wind Luftdruck Luftfeuchtigkeit
    00:00 +25°C° 0 mm 1 m/S 761 mmHg 69%
    01:00 +25°C° 0 mm 2 m/S 761 mmHg 70%
    02:00 +25°C° 0 mm 2 m/S 761 mmHg 70%
    03:00 +25°C° 0 mm 2 m/S 761 mmHg 71%
    04:00 +25°C° 0 mm 2 m/S 761 mmHg 69%
    05:00 +25°C° 0 mm 3 m/S 761 mmHg 68%
    06:00 +26°C° 0 mm 3 m/S 761 mmHg 66%
    07:00 +27°C° 0 mm 3 m/S 761 mmHg 61%
    08:00 +28°C° 0 mm 4 m/S 760 mmHg 55%
    09:00 +29°C° 0 mm 4 m/S 760 mmHg 50%
    10:00 +30°C° 0 mm 4 m/S 760 mmHg 47%
    11:00 +32°C° 0 mm 4 m/S 760 mmHg 43%
    12:00 +33°C° 0 mm 5 m/S 759 mmHg 40%
    13:00 +33°C° 0 mm 5 m/S 759 mmHg 38%
    14:00 +33°C° 0 mm 5 m/S 758 mmHg 37%
    15:00 +34°C° 0 mm 5 m/S 758 mmHg 35%
    16:00 +33°C° 0 mm 5 m/S 758 mmHg 38%
    17:00 +32°C° 0 mm 5 m/S 757 mmHg 41%
    18:00 +30°C° 0 mm 5 m/S 757 mmHg 43%
    19:00 +29°C° 0 mm 4 m/S 757 mmHg 48%
    20:00 +28°C° 0 mm 4 m/S 757 mmHg 52%
    21:00 +27°C° 0 mm 3 m/S 758 mmHg 57%
    22:00 +27°C° 0 mm 3 m/S 757 mmHg 57%
    23:00 +27°C° 0 mm 2 m/S 757 mmHg 58%

    übermorgen, 28 Juni, Mittwoch

    Zeit Temperatur Niederschläge Wind Luftdruck Luftfeuchtigkeit
    00:00 +27°C° 0 mm 2 m/S 757 mmHg 58%
    01:00 +27°C° 0 mm 2 m/S 757 mmHg 59%
    02:00 +26°C° 0 mm 3 m/S 757 mmHg 59%
    03:00 +26°C° 0 mm 3 m/S 757 mmHg 60%
    04:00 +27°C° 0 mm 3 m/S 757 mmHg 58%
    05:00 +27°C° 0 mm 3 m/S 757 mmHg 57%
    06:00 +27°C° 0 mm 3 m/S 757 mmHg 55%
    07:00 +29°C° 0 mm 3 m/S 757 mmHg 50%
    08:00 +30°C° 0 mm 3 m/S 757 mmHg 45%
    09:00 +33°C° 0 mm 3 m/S 757 mmHg 39%
    10:00 +34°C° 0 mm 4 m/S 757 mmHg 36%
    11:00 +35°C° 0 mm 4 m/S 757 mmHg 33%
    12:00 +36°C° 0 mm 4 m/S 756 mmHg 30%
    13:00 +36°C° 0 mm 5 m/S 756 mmHg 30%
    14:00 +36°C° 0 mm 5 m/S 756 mmHg 31%
    15:00 +36°C° 0 mm 5 m/S 755 mmHg 31%
    16:00 +35°C° 0 mm 4 m/S 755 mmHg 32%
    17:00 +34°C° 0 mm 4 m/S 755 mmHg 33%
    18:00 +34°C° 0 mm 4 m/S 755 mmHg 34%
    19:00 +33°C° 0 mm 3 m/S 755 mmHg 35%
    20:00 +31°C° 0 mm 3 m/S 755 mmHg 37%
    21:00 +30°C° 0 mm 3 m/S 756 mmHg 39%
    22:00 +30°C° 0 mm 4 m/S 755 mmHg 40%
    23:00 +30°C° 0 mm 4 m/S 755 mmHg 41%

    29 Juni, Donnerstag

    Zeit Temperatur Niederschläge Wind Luftdruck Luftfeuchtigkeit
    00:00 +29°C° 0 mm 5 m/S 755 mmHg 42%
    01:00 +29°C° 0 mm 5 m/S 755 mmHg 44%
    02:00 +28°C° 0 mm 5 m/S 755 mmHg 47%
    03:00 +28°C° 0 mm 5 m/S 755 mmHg 49%
    04:00 +28°C° 0 mm 5 m/S 755 mmHg 48%
    05:00 +29°C° 0 mm 5 m/S 755 mmHg 48%
    06:00 +29°C° 0 mm 6 m/S 755 mmHg 48%
    07:00 +30°C° 0 mm 5 m/S 756 mmHg 44%
    08:00 +32°C° 0 mm 5 m/S 756 mmHg 40%
    09:00 +33°C° 0 mm 5 m/S 756 mmHg 36%
    10:00 +34°C° 0 mm 6 m/S 756 mmHg 34%
    11:00 +35°C° 0 mm 6 m/S 756 mmHg 32%
    12:00 +35°C° 0 mm 6 m/S 756 mmHg 30%
    13:00 +35°C° 0 mm 6 m/S 755 mmHg 29%
    14:00 +35°C° 0 mm 6 m/S 755 mmHg 28%
    15:00 +35°C° 0 mm 6 m/S 755 mmHg 27%
    16:00 +34°C° 0 mm 6 m/S 755 mmHg 29%
    17:00 +33°C° 0 mm 6 m/S 755 mmHg 31%
    18:00 +33°C° 0 mm 6 m/S 755 mmHg 33%
    19:00 +32°C° 0 mm 6 m/S 755 mmHg 36%
    20:00 +30°C° 0 mm 6 m/S 755 mmHg 39%
    21:00 +29°C° 0 mm 6 m/S 755 mmHg 43%
    22:00 +29°C° 0 mm 7 m/S 755 mmHg 46%
    23:00 +29°C° 0 mm 7 m/S 755 mmHg 50%

    30 Juni, Freitag

    Zeit Temperatur Niederschläge Wind Luftdruck Luftfeuchtigkeit
    00:00 +28°C° 0 mm 7 m/S 755 mmHg 53%
    01:00 +28°C° 0 mm 7 m/S 755 mmHg 55%
    02:00 +28°C° 0 mm 7 m/S 755 mmHg 57%
    03:00 +28°C° 0 mm 7 m/S 755 mmHg 59%
    04:00 +28°C° 0 mm 8 m/S 755 mmHg 58%
    05:00 +28°C° 0 mm 8 m/S 755 mmHg 58%
    06:00 +29°C° 0 mm 9 m/S 755 mmHg 57%
    07:00 +31°C° 0 mm 9 m/S 755 mmHg 53%
    08:00 +32°C° 0 mm 9 m/S 756 mmHg 49%
    09:00 +33°C° 0 mm 10 m/S 756 mmHg 44%
    10:00 +33°C° 0 mm 10 m/S 756 mmHg 44%
    11:00 +34°C° 0 mm 10 m/S 756 mmHg 43%
    12:00 +34°C° 0 mm 10 m/S 756 mmHg 43%
    13:00 +34°C° 0 mm 11 m/S 756 mmHg 43%
    14:00 +33°C° 0 mm 11 m/S 756 mmHg 42%
    15:00 +33°C° 0 mm 11 m/S 756 mmHg 42%
    16:00 +33°C° 0 mm 11 m/S 756 mmHg 44%
    17:00 +32°C° 0 mm 12 m/S 756 mmHg 45%
    18:00 +32°C° 0 mm 12 m/S 756 mmHg 47%
    19:00 +31°C° 0 mm 12 m/S 756 mmHg 48%
    20:00 +31°C° 0 mm 12 m/S 757 mmHg 49%
    21:00 +29°C° 0 mm 11 m/S 757 mmHg 50%
    22:00 +29°C° 0 mm 12 m/S 757 mmHg 50%
    23:00 +29°C° 0 mm 12 m/S 757 mmHg 49%

    1 Juli, Samstag

    Zeit Temperatur Niederschläge Wind Luftdruck Luftfeuchtigkeit
    00:00 +29°C° 0 mm 12 m/S 757 mmHg 49%
    01:00 +29°C° 0 mm 12 m/S 757 mmHg 51%
    02:00 +28°C° 0 mm 12 m/S 757 mmHg 53%
    03:00 +28°C° 0 mm 12 m/S 757 mmHg 55%
    04:00 +28°C° 0 mm 12 m/S 757 mmHg 53%
    05:00 +29°C° 0 mm 12 m/S 758 mmHg 52%
    06:00 +29°C° 0 mm 12 m/S 758 mmHg 50%
    07:00 +31°C° 0 mm 12 m/S 758 mmHg 46%
    08:00 +32°C° 0 mm 12 m/S 759 mmHg 42%
    09:00 +33°C° 0 mm 13 m/S 759 mmHg 39%
    10:00 +33°C° 0 mm 12 m/S 759 mmHg 38%
    11:00 +33°C° 0 mm 12 m/S 759 mmHg 38%
    12:00 +34°C° 0 mm 11 m/S 759 mmHg 38%
    13:00 +34°C° 0 mm 11 m/S 758 mmHg 37%
    14:00 +33°C° 0 mm 10 m/S 758 mmHg 36%
    15:00 +33°C° 0 mm 9 m/S 758 mmHg 35%
    16:00 +33°C° 0 mm 9 m/S 758 mmHg 36%
    17:00 +32°C° 0 mm 9 m/S 758 mmHg 37%
    18:00 +32°C° 0 mm 8 m/S 758 mmHg 38%
    19:00 +31°C° 0 mm 8 m/S 758 mmHg 40%
    20:00 +29°C° 0 mm 8 m/S 759 mmHg 42%
    21:00 +29°C° 0 mm 7 m/S 759 mmHg 44%
    22:00 +28°C° 0 mm 7 m/S 759 mmHg 44%
    23:00 +28°C° 0 mm 7 m/S 759 mmHg 45%
    Mehr zeigen